{"data":{"norad_id":65673,"intl_designator":"2025-211X","name":"STARLINK-35177","alt_names":[],"object_type":"PAYLOAD","status":"ACTIVE","operator":null,"country":"US","launch_date":"2025-09-19","launch_site_code":"AFWTR","launch_vehicle":null,"mission":null,"orbit_class":"UNKNOWN","rcs_meters":null,"size_class":null,"mass_kg":null,"dimensions":null,"purposes":["comms"],"wikipedia_slug":null,"has_3d_model":false,"image_url":null,"decayed_at":null,"tle_current":{"epoch":"2026-05-25T02:11:21.465024Z","epoch_age_seconds":77370,"freshness":"FRESH","line1":"1 65673U 25211X   26145.09122066  .00004261  00000+0  29914-3 0  9992","line2":"2 65673  97.4461 189.0950 0001779 115.0494 245.0918 15.05659631 38540","mean_motion":15.05659631,"eccentricity":0.0001779,"inclination_deg":97.4461,"raan_deg":189.095,"arg_perigee_deg":115.0494,"mean_anomaly_deg":245.0918,"bstar":0.00029914,"rev_number":3854,"period_min":95.639145152853,"perigee_km":548.24918870783,"apogee_km":550.71403541,"semimajor_km":6927.6186120589,"source":"CELESTRAK","updated_at":"2026-05-25T13:38:20.892579Z"}}}